GFSSGP_850_thetae_009.txt.gz
Theta_e
309 312 316 316 322 323 326 327 327 337 341 339 339 340 340 340 344 347 341 342 343 343 338 332 329 331 332 333 334 334 333 332 330 324 319 316 313 312 313 309 307 308 307 307 307 309 310 311 310
319 315 314 319 323 326 327 326 327 340 338 337 335 334 334 338 341 343 342 343 343 342 338 335 330 330 333 334 335 334 333 332 324 318 315 312 312 313 309 308 308 308 308 309 310 310 310 310 310
315 313 315 319 323 324 326 329 338 337 335 335 332 330 330 332 339 341 342 342 342 340 338 337 333 333 334 336 335 334 333 328 320 316 314 311 313 310 308 308 308 310 310 310 310 310 311 311 311
314 313 317 322 323 324 324 336 336 334 333 332 332 333 329 330 335 338 342 344 341 340 340 336 335 335 336 336 335 334 330 323 318 314 312 310 313 308 307 309 311 310 310 310 310 311 312 313 313
314 315 318 320 323 324 323 332 332 333 333 332 332 330 329 329 335 337 339 340 338 337 334 336 335 336 337 335 334 331 327 321 315 314 312 310 311 307 310 312 310 311 311 311 312 312 313 313 313
314 317 320 322 324 323 323 331 331 331 329 329 330 330 331 336 335 338 338 339 336 334 336 337 330 334 336 333 332 329 326 319 313 314 310 310 308 312 313 311 311 312 312 312 312 314 314 313 312
316 319 321 323 324 324 325 329 330 330 329 328 330 333 337 336 338 340 338 333 328 328 335 336 336 335 333 331 330 327 324 316 313 313 309 310 314 313 313 311 312 312 313 314 315 315 315 314 313
316 321 321 322 324 329 328 329 331 330 330 330 327 329 337 337 341 339 338 335 334 337 333 336 335 333 331 329 327 325 320 313 313 312 312 315 315 313 313 313 312 313 314 315 315 315 315 314 321
317 320 321 323 327 331 331 331 327 326 325 327 333 335 337 340 341 340 337 336 337 337 335 334 333 333 331 330 324 317 314 312 312 316 316 321 327 326 326 320 313 313 314 315 314 313 313 318 322
317 319 321 325 329 331 328 328 328 327 328 330 335 337 340 339 338 339 338 338 337 335 335 334 333 331 331 331 326 327 322 325 326 328 327 327 325 325 318 322 314 314 315 315 317 317 319 320 319
317 321 324 326 327 326 326 325 326 328 331 330 336 337 336 337 336 337 337 334 333 335 333 332 328 331 331 328 325 323 323 325 327 328 328 326 327 327 326 325 325 325 323 323 321 320 320 320 318
320 320 321 320 323 322 324 323 327 324 324 326 332 335 334 337 337 336 334 331 332 333 332 331 330 330 328 324 324 324 327 328 328 329 327 328 327 318 317 325 324 323 323 321 320 320 319 317 315
320 320 319 317 318 322 324 325 324 326 327 330 334 335 333 335 333 331 329 329 330 330 329 329 328 327 327 326 328 329 330 330 328 329 328 325 326 319 320 319 317 318 321 320 320 319 316 313 313
319 320 316 319 321 324 326 324 321 327 329 331 332 331 330 330 329 328 328 328 327 329 329 328 326 327 329 330 330 328 322 322 323 322 324 326 324 322 319 318 320 320 320 319 316 314 312 311 311
317 317 316 321 321 324 321 321 323 327 328 329 329 328 328 327 326 326 326 326 328 329 328 327 330 330 330 328 324 321 320 318 323 323 322 324 324 322 321 320 318 318 316 312 311 311 310 310 310
318 319 322 322 321 318 318 320 322 326 328 329 328 329 329 328 326 324 323 324 329 329 327 328 329 328 325 322 320 320 319 318 320 319 317 318 317 317 317 316 316 312 309 308 309 309 309 309 309
318 318 320 320 319 317 318 320 322 324 327 328 329 330 330 329 327 326 325 324 329 330 329 328 327 323 324 322 322 320 319 320 318 316 313 311 311 311 311 312 312 310 311 311 310 309 309 309 309
319 319 319 318 318 318 320 322 323 323 325 328 329 330 329 329 328 328 326 325 328 330 329 329 328 323 321 327 322 321 319 317 316 314 312 310 312 310 311 312 311 310 310 310 310 310 309 308 308
319 318 318 319 319 318 321 321 322 324 324 325 327 328 329 329 329 329 327 327 329 331 330 330 328 327 327 325 322 320 319 317 315 313 309 310 310 310 310 311 311 310 310 309 309 309 308 307 304
319 319 320 320 320 323 322 323 323 324 325 326 326 326 327 328 329 329 329 329 330 331 331 329 328 327 324 322 320 320 319 316 313 312 311 310 310 310 309 309 309 309 308 307 307 307 306 304 302
319 319 321 321 323 323 323 325 326 325 325 326 327 327 327 328 329 330 330 331 331 331 330 329 327 324 321 320 318 315 312 313 314 313 311 311 310 309 308 308 307 307 306 304 303 304 304 302 301
320 322 322 321 323 322 322 323 325 326 326 325 326 327 328 329 330 331 331 331 330 330 329 325 323 320 318 315 315 315 315 314 312 311 310 309 307 306 304 303 303 303 304 303 302 303 302 301 300
325 323 323 323 324 323 323 322 325 327 327 326 325 326 327 329 330 331 332 331 329 328 326 322 319 315 314 314 314 314 313 311 309 306 303 301 300 299 298 298 298 299 302 303 303 303 302 300 299
323 323 323 322 323 324 322 323 327 328 327 327 327 327 329 330 330 329 328 327 326 323 320 318 315 314 313 313 312 311 308 305 303 301 299 298 298 298 298 298 298 299 300 302 302 302 300 299 298
322 323 322 323 325 323 322 324 323 323 325 327 327 327 328 328 326 323 323 320 318 317 316 315 314 313 312 311 308 305 303 301 300 299 298 298 298 297 297 298 299 300 300 301 300 299 298 298 296
322 321 323 321 322 321 323 322 321 323 322 324 327 326 326 324 321 320 319 317 317 317 316 314 313 312 310 306 303 305 302 301 300 299 298 297 297 297 297 298 300 300 300 299 298 298 297 297 295
321 323 322 323 324 324 321 320 322 323 323 324 327 325 324 322 319 318 317 317 316 316 315 314 313 310 305 304 309 308 301 298 299 299 298 296 296 296 296 297 299 299 299 298 298 297 296 295 294
322 322 322 321 321 322 321 321 320 324 323 324 327 324 323 321 319 318 318 318 317 316 314 313 311 306 305 308 305 301 299 300 299 298 297 296 296 296 296 296 297 298 298 298 296 296 295 294 293
322 320 320 322 324 324 320 320 321 319 322 323 325 324 323 321 319 319 319 318 316 315 314 311 307 306 305 304 301 300 300 300 299 298 296 296 295 295 295 295 296 296 296 296 295 295 295 293 293
322 322 322 322 321 322 324 320 319 321 321 322 323 323 322 321 320 319 319 317 315 314 312 309 307 305 304 302 302 300 300 299 298 297 296 296 295 295 295 295 295 295 295 294 294 293 293 292 292

GFSSGP_850_thetae_012.txt.gz
Theta_e
309 309 316 318 318 321 324 325 326 336 341 338 337 339 341 342 345 346 342 339 340 339 330 329 329 330 332 332 333 332 331 330 329 323 317 314 311 313 308 307 307 307 308 310 310 310 310 310 310
311 318 319 317 319 322 324 325 340 339 338 336 335 335 336 342 344 344 343 343 342 338 330 329 330 332 333 334 334 333 332 330 323 317 314 311 312 310 308 308 308 309 310 310 310 311 312 313 313
320 319 314 317 320 323 325 328 335 338 335 334 333 333 332 338 342 342 343 343 342 338 332 329 331 332 334 335 334 333 331 326 318 314 311 312 311 308 308 308 310 310 310 310 312 313 313 313 313
316 314 314 318 319 322 324 329 337 336 335 334 333 332 329 331 339 342 342 341 340 339 336 330 331 333 335 335 334 333 329 321 315 313 310 312 310 308 309 311 310 310 311 312 313 313 313 313 313
316 315 315 318 321 322 325 334 333 335 334 331 330 329 328 334 336 342 341 340 339 338 336 332 332 334 336 335 333 331 326 319 312 312 309 311 309 308 311 310 311 311 312 312 313 314 313 312 313
315 315 316 318 319 322 324 333 331 331 332 330 331 330 331 334 337 339 339 337 338 336 332 329 334 335 335 334 331 329 324 316 311 312 308 310 309 312 311 311 312 312 312 313 314 314 314 313 318
317 317 317 320 321 325 324 333 332 331 331 330 332 333 333 335 337 335 333 334 335 331 326 328 326 330 334 332 330 327 322 311 312 310 309 311 313 313 311 311 312 313 314 314 315 314 314 314 321
316 318 318 320 322 325 328 332 328 327 330 330 330 327 333 337 339 334 332 327 329 329 333 333 329 334 331 329 326 323 317 310 312 311 313 314 314 313 314 313 312 313 314 314 314 313 313 320 322
316 317 319 321 323 331 328 327 329 330 328 330 329 326 333 339 336 336 335 332 327 327 327 333 329 330 329 326 321 318 314 311 312 314 323 327 326 327 327 325 312 313 314 313 316 317 319 320 320
316 318 320 329 331 331 328 326 327 328 328 333 334 326 336 338 336 337 336 333 329 331 332 331 331 330 328 322 322 314 321 323 328 320 328 328 327 325 323 325 318 324 322 322 323 321 321 321 319
317 318 321 325 325 327 327 328 328 329 329 328 331 337 339 338 336 336 337 335 331 331 331 329 328 329 331 326 324 323 325 324 325 322 329 328 327 328 327 325 326 325 324 323 321 321 320 319 316
318 318 320 324 324 325 327 327 323 323 325 323 330 335 337 337 337 337 335 334 334 333 333 330 331 330 327 324 323 326 327 328 329 325 325 327 328 324 321 323 325 323 321 321 320 320 319 315 313
318 320 320 320 321 323 325 325 324 323 325 327 329 333 336 336 336 334 331 332 332 332 330 330 329 327 325 324 327 328 328 328 329 329 329 328 326 320 320 320 319 320 320 320 320 318 317 315 311
319 320 318 319 321 326 324 324 325 327 329 331 331 331 333 334 331 329 329 329 331 329 329 329 325 326 327 329 328 328 325 323 323 319 320 322 326 325 323 320 319 317 314 317 318 315 310 310 310
320 319 318 321 322 324 324 324 325 329 330 330 329 329 329 330 328 329 328 328 330 330 329 324 326 331 329 328 324 321 320 320 321 320 320 321 322 323 322 320 317 315 313 316 310 309 309 310 309
319 319 317 322 322 322 321 322 324 328 328 328 327 327 327 326 327 327 327 327 330 329 327 329 330 329 327 323 320 320 321 318 319 319 317 317 318 317 317 313 311 311 311 311 311 310 310 310 309
319 319 323 321 322 320 317 321 323 327 328 327 328 327 327 326 325 325 325 328 329 328 329 330 330 327 324 321 321 322 320 320 318 317 314 311 310 310 310 313 312 311 310 311 310 311 310 309 308
319 319 321 320 320 317 318 321 322 325 324 325 328 328 328 327 326 325 324 327 331 329 329 330 329 325 322 326 324 321 318 317 315 314 312 314 312 310 310 312 311 311 311 310 310 309 309 308 308
320 320 319 320 318 317 321 321 322 323 328 328 329 329 329 329 329 327 325 326 331 331 329 330 329 323 325 327 321 319 318 317 315 313 310 311 310 311 310 310 310 310 310 309 308 306 307 307 306
320 320 319 319 319 319 319 321 321 323 324 326 327 328 328 329 329 329 328 326 329 331 330 330 329 328 328 324 321 320 319 316 314 313 312 312 311 310 309 308 308 307 307 306 305 304 303 303 304
320 320 321 320 318 319 323 322 322 322 323 324 324 326 327 328 330 330 328 329 330 332 331 330 329 328 323 321 320 320 317 314 314 313 312 311 310 309 307 306 304 304 302 304 304 303 303 304 303
322 323 321 322 323 320 323 325 326 325 323 325 326 326 326 327 329 330 331 331 331 331 331 329 328 324 321 318 316 316 316 315 314 312 311 308 306 304 302 299 298 298 299 301 302 303 303 303 302
322 322 322 321 322 324 325 324 326 324 326 325 326 327 327 328 329 331 332 331 331 330 329 327 324 321 318 316 316 315 314 312 310 308 305 301 300 298 298 298 297 295 295 296 300 302 303 302 300
323 321 323 321 322 329 324 325 325 325 324 327 325 326 327 328 330 331 332 330 329 330 327 324 320 316 315 315 315 314 313 310 306 304 301 299 298 298 297 297 295 296 298 300 301 302 302 301 299
321 322 323 325 328 327 322 324 327 324 325 326 326 326 327 329 330 331 331 330 329 327 324 321 316 315 314 313 313 312 309 308 308 304 299 297 297 297 297 295 295 295 300 301 301 301 299 297 297
322 319 325 328 327 325 323 323 322 326 325 324 326 328 329 330 330 330 329 328 326 323 320 317 315 314 313 311 310 308 310 311 305 301 299 295 296 295 295 295 294 298 300 300 297 297 297 296 296
318 321 322 322 327 327 322 319 319 323 322 323 328 328 329 329 327 326 325 322 320 319 317 315 314 314 311 308 307 308 310 306 301 298 297 295 294 295 295 294 295 298 299 297 297 296 297 296 296
321 321 324 323 323 322 319 321 324 324 323 322 327 327 327 326 324 322 321 319 318 318 317 315 314 313 308 306 308 309 307 303 299 298 297 295 295 294 294 295 295 296 297 298 297 296 296 295 295
321 320 320 320 326 331 329 322 320 320 321 323 324 327 326 325 323 320 319 318 318 318 317 315 314 311 306 306 308 305 304 300 299 298 297 296 295 294 295 295 295 295 296 295 295 295 294 294 294
321 323 320 331 324 330 330 323 320 320 320 321 322 325 325 324 322 320 319 318 319 318 316 315 314 309 306 306 304 304 301 300 300 299 298 297 295 295 295 295 295 295 295 295 294 294 294 293 293

GFSSGP_850_thetae_015.txt.gz
Theta_e
312 308 314 318 313 311 314 316 320 337 338 336 339 342 343 344 345 343 343 342 339 337 330 332 329 328 328 329 330 330 329 326 320 315 312 310 311 307 307 308 309 310 310 310 312 313 313 313 313
311 310 318 320 311 312 314 324 338 334 334 334 333 336 340 343 343 342 342 335 334 334 330 328 329 330 331 331 331 331 329 323 317 313 310 311 309 308 308 309 310 310 311 313 313 313 313 313 313
311 320 321 310 310 313 315 329 337 334 333 332 331 330 334 342 342 343 343 340 337 329 328 328 330 332 332 333 332 331 328 319 315 311 310 311 308 308 309 310 310 311 312 313 313 313 313 312 313
318 316 316 310 311 313 316 325 334 333 332 331 331 328 330 339 341 341 340 338 331 328 328 330 332 333 334 333 332 330 323 317 312 309 311 309 308 309 310 310 311 312 313 314 314 313 313 315 314
316 316 308 310 312 316 323 333 334 334 333 331 329 328 332 337 338 339 339 336 332 331 330 332 333 334 335 333 332 328 320 314 311 309 311 309 309 311 310 311 312 313 314 314 314 313 313 319 318
318 314 311 310 313 315 328 332 332 332 332 330 330 329 334 337 336 337 337 338 336 331 331 332 334 335 333 331 330 325 318 311 310 308 310 308 311 310 311 312 313 313 314 314 314 313 315 320 319
315 311 312 312 314 325 332 330 329 330 329 330 330 333 335 338 336 334 335 335 335 331 332 332 331 331 324 326 328 323 316 309 310 308 309 312 312 310 310 312 313 314 314 314 314 313 319 321 320
316 312 314 314 316 327 329 329 330 329 329 331 331 329 332 335 330 333 333 333 333 330 328 328 327 331 328 330 326 320 311 310 309 310 312 312 312 312 312 311 312 313 314 313 315 317 319 320 319
316 311 311 323 329 327 327 327 328 329 330 328 327 330 335 334 334 330 329 329 324 327 325 322 323 326 328 326 322 316 309 310 312 315 318 323 325 325 324 316 314 314 320 319 321 320 321 321 319
314 311 315 326 328 329 328 326 327 328 330 330 326 333 334 330 330 330 327 326 323 328 323 322 327 329 326 321 315 311 310 314 318 327 326 326 327 323 324 324 325 324 324 323 321 320 321 318 316
316 313 320 325 324 327 326 327 327 327 328 328 325 326 333 332 333 327 325 324 326 331 328 327 327 326 320 314 315 318 321 322 326 328 329 326 327 326 326 325 325 324 322 321 321 320 320 317 314
315 316 316 323 324 325 325 327 328 326 326 328 330 329 332 332 332 330 330 329 330 329 327 328 330 327 323 323 324 326 326 323 322 330 329 327 321 326 321 324 324 323 321 320 320 320 318 316 315
316 316 318 321 323 325 326 325 323 324 327 328 332 334 333 333 332 331 331 331 331 331 329 330 330 326 325 324 325 328 328 330 330 326 328 328 325 322 319 320 320 319 319 318 318 319 318 315 310
318 317 317 318 321 324 323 323 325 325 327 328 331 333 334 333 332 331 332 332 330 330 330 331 326 325 324 327 327 327 329 329 326 319 319 321 322 323 323 322 320 318 315 313 314 315 310 309 309
319 317 317 320 323 323 323 323 325 328 330 330 330 333 334 330 331 330 330 330 327 330 328 324 326 327 324 326 325 324 323 321 319 318 320 321 323 323 322 321 318 312 311 311 310 310 310 309 309
319 317 316 320 321 323 322 322 327 330 331 329 332 332 332 328 329 329 331 329 329 329 324 324 327 327 325 324 323 319 319 320 318 319 318 319 320 318 314 311 310 310 310 309 310 310 310 310 309
317 317 322 320 320 320 319 320 327 329 329 327 327 328 328 327 327 327 328 329 330 325 324 330 330 328 325 322 320 321 321 319 319 317 314 312 310 309 310 311 311 311 310 310 310 310 310 308 307
317 320 321 320 318 319 314 318 324 327 327 326 326 326 326 326 326 326 326 329 329 324 329 330 329 325 324 321 323 321 319 318 317 314 312 311 310 310 310 311 310 310 310 310 309 309 305 305 306
319 318 319 317 317 316 316 317 320 323 324 324 326 327 326 326 325 325 325 329 329 327 328 329 326 325 322 324 321 319 317 315 313 313 310 311 311 311 310 309 309 307 305 305 305 303 304 304 302
319 319 318 317 315 314 317 317 317 322 323 323 325 322 327 325 324 324 327 329 330 328 328 328 326 325 323 326 320 318 317 316 313 312 312 311 311 310 308 307 305 304 303 301 301 302 302 301 302
320 321 319 318 317 317 319 321 321 322 323 324 325 323 328 327 326 326 325 329 331 330 329 328 326 324 327 327 321 318 317 315 313 312 312 311 311 309 306 303 301 299 299 299 299 300 301 303 303
320 321 322 321 320 318 317 321 324 322 320 321 325 327 328 328 328 328 327 329 330 330 330 330 329 326 327 323 321 319 317 314 313 312 312 311 309 304 301 298 297 296 295 294 295 297 300 302 302
320 320 321 322 320 323 321 322 322 321 321 322 323 324 328 328 329 330 329 329 330 331 331 330 329 328 321 320 320 316 315 315 313 312 312 307 306 301 298 297 296 295 294 295 297 300 302 303 302
322 320 320 320 319 322 323 321 324 322 322 322 324 325 326 329 330 330 329 330 330 330 331 329 329 326 321 318 316 315 315 315 314 312 308 310 308 300 296 295 295 294 294 298 300 301 302 301 300
322 322 321 321 322 322 323 325 322 322 321 321 324 324 326 329 329 330 331 331 330 330 329 329 327 323 322 320 316 315 315 314 312 309 311 310 302 296 295 295 294 293 296 299 300 299 297 297 296
321 318 322 322 324 326 323 324 322 321 322 323 323 324 323 328 330 331 331 331 330 329 329 327 323 322 321 316 315 314 313 311 310 311 309 302 296 295 294 294 293 294 298 299 300 297 296 295 296
320 320 319 324 324 326 324 321 321 321 322 323 323 322 324 328 329 330 331 330 329 330 326 323 321 319 318 315 314 312 310 310 310 308 302 297 295 294 294 293 292 293 297 297 298 298 296 296 296
320 319 320 320 323 321 317 319 321 321 321 322 322 321 329 330 330 330 330 330 329 328 325 321 317 317 315 314 312 309 309 308 307 302 298 298 297 294 293 293 294 294 293 295 296 296 296 295 294
319 318 318 318 318 319 321 319 317 318 319 320 323 326 329 329 328 327 327 326 326 323 321 319 315 314 314 313 310 307 308 306 303 299 299 297 296 295 293 294 294 294 294 295 295 295 295 294 293
318 320 319 315 317 317 315 318 317 316 318 320 321 326 328 327 327 325 324 323 320 319 318 317 316 314 314 312 307 307 305 303 300 300 299 298 297 296 294 294 293 294 295 295 295 294 293 293 293

GFSSGP_850_thetae_018.txt.gz
Theta_e
313 311 309 316 313 308 312 313 316 330 335 340 341 342 342 342 344 337 341 341 335 330 331 334 335 330 327 328 327 327 327 320 314 311 310 309 307 308 309 310 310 311 313 313 313 313 313 317 316
312 309 313 318 309 310 311 314 333 333 333 331 332 339 341 343 342 341 342 340 332 329 333 335 331 328 328 328 329 328 324 317 312 310 310 308 308 309 310 310 311 313 313 313 313 313 313 314 318
311 312 320 312 306 310 311 325 333 331 332 332 330 330 338 343 341 342 340 338 331 330 333 331 328 328 329 330 330 328 319 314 310 311 309 308 309 310 310 311 313 314 314 313 313 315 314 314 318
314 318 318 307 309 309 313 321 333 331 331 330 329 327 339 342 342 341 339 337 334 331 330 328 327 330 331 331 331 323 316 311 309 311 309 309 310 310 311 312 314 314 314 313 313 316 317 315 315
315 315 307 307 309 312 315 327 333 332 331 330 328 330 337 341 340 341 338 335 334 330 327 327 330 332 332 332 328 319 314 310 309 311 309 309 310 311 312 313 314 314 314 313 314 317 318 317 316
317 311 308 308 312 321 330 331 332 331 331 329 329 334 337 339 339 338 336 333 330 329 330 331 332 333 332 328 321 319 314 309 309 310 309 311 310 312 313 313 313 314 314 314 314 318 319 318 317
314 310 312 313 314 323 331 330 329 330 329 329 333 332 335 339 338 336 335 332 328 330 333 331 328 325 322 324 321 320 311 310 308 310 310 311 310 312 312 313 314 314 314 313 315 318 319 319 318
316 309 312 312 328 329 327 327 328 329 329 329 327 329 334 333 336 334 333 331 330 331 329 327 324 321 319 321 322 314 310 309 308 310 312 311 310 311 311 312 313 314 313 318 320 319 319 320 319
316 310 309 315 328 327 327 327 328 329 328 330 330 333 335 338 333 332 330 331 331 331 329 328 323 322 326 326 319 311 310 310 312 314 313 317 321 320 313 315 321 323 322 322 320 321 321 320 320
313 310 312 315 327 327 326 327 328 328 329 331 334 333 333 331 330 328 324 327 328 325 326 324 325 320 326 324 314 311 311 316 322 324 324 326 324 323 321 324 323 323 323 321 320 320 320 318 315
313 313 314 324 325 326 326 326 327 328 328 327 332 330 328 329 329 325 323 323 319 320 323 325 325 327 325 316 311 312 317 327 328 327 327 326 323 322 324 325 325 323 322 321 321 320 319 315 313
314 315 315 323 325 324 325 326 327 326 327 326 332 329 326 329 327 326 322 325 324 321 325 328 326 322 317 316 314 320 320 327 328 328 326 326 327 326 324 323 324 323 321 320 320 319 317 317 316
313 314 316 318 324 325 325 326 323 323 328 326 331 332 332 327 324 325 324 327 326 326 324 326 324 321 320 323 323 325 325 326 329 327 327 327 323 324 320 321 320 320 319 318 316 315 317 315 311
318 316 316 322 324 325 325 324 323 324 329 329 332 332 331 329 327 326 327 328 326 326 326 328 325 323 325 326 327 328 328 327 326 323 319 321 323 323 320 321 321 319 316 313 311 312 310 309 309
319 316 317 319 322 322 324 323 324 326 331 332 333 333 332 330 330 329 329 329 328 328 329 329 325 325 324 326 328 329 329 327 319 318 318 320 322 321 321 321 318 313 310 309 310 309 309 309 309
317 314 315 319 321 322 322 326 325 326 327 330 332 332 332 331 331 330 327 329 328 329 330 327 325 325 326 327 328 328 327 322 319 319 320 320 321 319 317 316 311 310 310 310 309 309 309 309 310
314 316 320 319 320 321 320 326 326 328 329 328 331 331 332 332 331 330 329 325 324 324 326 325 325 324 325 327 326 321 320 320 318 318 315 315 313 311 309 310 310 310 309 309 308 309 309 309 304
316 319 320 319 318 320 320 322 326 327 327 325 329 331 329 331 331 330 330 328 327 326 323 326 326 326 325 325 322 322 320 318 318 317 313 310 310 310 311 310 310 309 308 308 308 306 304 300 302
318 318 318 317 317 316 315 321 323 324 326 325 326 326 327 328 328 330 329 329 329 325 318 324 327 327 327 323 321 322 320 319 317 313 311 310 311 311 310 310 310 307 303 301 300 299 299 300 299
318 318 317 317 316 315 314 324 322 322 325 325 326 325 326 327 328 329 329 329 329 323 324 328 329 329 326 322 322 320 318 316 313 312 310 311 311 311 310 309 307 303 300 299 298 298 298 299 301
318 319 319 318 314 315 316 318 321 322 323 323 326 326 326 325 326 328 329 329 328 327 325 326 328 326 325 322 322 317 316 314 313 311 311 311 312 311 310 307 303 300 297 296 296 295 297 299 302
317 318 320 320 317 316 315 319 320 320 319 324 322 326 323 326 325 325 327 328 328 328 328 326 325 325 323 323 321 319 318 317 315 313 312 312 312 308 308 303 298 297 296 295 294 295 296 299 302
318 317 319 321 318 318 320 319 319 320 318 322 323 325 322 324 325 324 324 326 328 329 329 328 327 325 323 325 326 321 319 318 316 313 312 312 309 307 304 299 297 296 295 294 294 296 299 301 301
319 319 319 317 318 319 321 318 317 321 321 319 319 324 325 325 325 324 324 326 328 329 330 328 329 327 327 327 326 323 319 317 314 313 312 310 308 306 301 297 295 294 294 293 296 298 300 298 296
320 319 319 319 318 318 322 321 319 318 319 319 319 322 325 326 326 326 325 327 329 329 329 330 330 329 327 323 321 320 319 315 314 312 311 308 305 300 296 295 294 294 293 294 297 298 299 296 295
319 317 317 320 320 321 322 323 322 320 320 321 320 322 325 324 327 328 328 328 330 329 329 330 330 329 323 320 319 316 315 314 312 310 309 306 301 297 295 294 294 293 293 295 297 299 297 297 295
318 318 317 320 319 322 321 321 314 320 319 320 320 322 324 328 329 330 329 329 330 330 330 329 329 328 324 318 317 315 313 312 311 309 308 302 297 296 299 295 293 293 293 294 295 297 297 295 296
319 317 318 318 323 324 317 318 319 322 322 321 321 321 322 327 329 329 330 330 330 330 330 329 327 326 322 319 316 315 313 310 309 307 303 298 301 297 295 294 293 292 292 292 293 295 295 295 294
318 317 316 317 315 318 319 318 313 318 319 319 320 322 322 326 330 330 330 331 331 330 329 328 327 325 322 320 318 315 312 309 308 307 302 302 298 299 295 294 293 292 291 293 294 295 295 294 294
319 317 315 314 316 314 313 317 316 313 316 319 321 323 322 325 329 329 329 329 329 329 329 328 327 325 325 323 317 314 312 310 308 305 300 300 300 298 296 295 294 292 292 294 295 295 294 292 293

GFSSGP_850_thetae_024.txt.gz
Theta_e
312 311 310 315 312 307 310 311 311 314 337 339 340 339 339 339 337 336 338 338 339 336 336 336 335 328 324 323 323 322 318 311 310 308 308 309 310 311 313 313 313 314 316 316 316 316 316 316 317
311 308 315 315 307 309 307 310 314 321 332 331 332 338 340 341 337 336 337 337 336 337 336 337 334 326 324 324 325 321 314 310 309 307 308 310 310 313 313 313 313 313 313 315 316 317 317 318 318
309 315 317 307 304 308 308 311 329 329 329 329 329 338 339 339 337 338 338 337 337 337 336 337 332 325 325 325 325 318 311 310 307 308 309 310 312 313 313 313 313 314 314 315 316 316 317 317 316
311 318 310 307 308 308 309 309 319 329 330 328 330 333 338 340 340 340 338 338 337 337 337 336 332 325 325 327 323 314 310 309 307 308 310 310 313 313 313 314 315 316 315 314 314 314 314 313 314
315 313 306 306 306 308 313 328 330 329 328 331 330 336 336 336 339 339 339 339 337 338 337 336 332 326 327 327 317 311 310 308 308 309 310 311 313 313 313 313 315 316 316 316 316 316 315 315 315
314 308 305 307 308 311 328 328 330 329 328 332 334 334 335 336 336 337 338 338 336 336 336 334 328 327 329 318 312 310 310 308 308 310 310 311 313 313 313 313 314 315 317 317 317 317 317 318 318
311 307 309 309 311 317 328 328 329 328 327 329 333 334 335 336 334 335 336 336 335 335 334 330 331 329 320 314 311 311 310 308 309 310 310 311 313 313 314 314 313 314 315 317 318 318 318 319 318
315 306 311 309 314 324 327 327 328 327 326 328 331 333 335 335 334 333 333 333 332 328 329 330 329 323 316 314 311 310 309 308 310 310 310 311 312 313 314 313 313 314 316 316 318 319 319 319 319
313 308 308 310 321 322 326 326 327 329 330 331 332 332 334 334 333 330 330 330 329 328 328 330 326 318 316 315 312 310 308 308 310 310 311 312 313 313 314 313 314 316 316 318 319 320 320 319 318
311 308 310 309 314 323 325 325 328 330 331 331 332 333 333 332 331 328 329 329 326 326 324 324 322 320 320 318 313 310 308 309 311 311 311 312 312 312 313 316 317 319 320 320 320 320 320 319 317
310 310 310 312 316 324 324 325 327 328 329 329 332 332 332 331 328 328 327 328 326 324 325 325 325 321 320 320 315 309 308 312 312 313 318 316 313 312 314 319 320 321 322 321 320 320 319 317 315
312 312 312 314 317 325 324 326 325 325 327 330 331 331 330 330 329 329 327 327 327 319 318 318 317 318 318 315 312 309 310 312 320 321 322 322 320 319 321 322 323 322 321 320 319 318 317 316 314
311 312 314 313 321 324 325 322 322 328 330 329 330 330 329 328 327 327 327 328 324 320 320 320 321 320 318 316 312 311 318 322 324 324 323 322 322 323 323 323 323 322 321 320 318 314 313 311 309
314 314 315 317 323 324 322 322 325 329 330 332 329 330 328 325 323 327 329 328 326 324 320 322 323 323 322 315 312 316 324 325 326 326 325 324 325 325 324 323 321 319 319 316 313 310 309 309 309
316 315 317 320 322 323 324 322 325 329 328 326 327 327 325 320 322 323 324 322 324 323 321 322 323 326 321 313 315 325 327 327 327 325 325 326 325 325 322 319 319 320 317 310 310 309 308 308 308
314 314 320 319 320 322 321 325 324 329 329 329 327 327 326 325 324 321 320 320 322 323 324 324 324 321 316 318 322 323 326 327 327 326 324 326 326 324 322 321 320 317 310 310 309 308 307 306 304
311 314 318 321 319 321 320 326 322 330 330 329 330 327 324 324 324 323 321 323 322 323 324 324 321 318 319 323 325 326 325 324 326 325 324 322 322 322 321 319 313 310 310 309 307 305 301 300 299
316 316 317 320 318 320 322 325 321 327 329 329 331 330 327 326 325 325 323 324 324 325 324 323 322 323 324 325 325 326 327 326 327 322 320 321 321 321 316 310 310 309 308 306 303 300 299 298 298
316 315 316 317 315 319 320 324 322 325 326 327 329 331 331 329 328 327 325 325 326 326 324 324 324 323 323 324 324 327 327 328 324 320 320 320 320 316 310 310 309 308 305 303 301 299 297 297 296
316 317 316 316 314 315 317 323 323 321 325 325 328 330 331 330 329 328 327 326 326 324 325 325 326 323 324 325 324 326 327 322 320 319 318 317 314 310 310 310 308 306 304 302 299 297 297 296 296
317 318 317 317 314 314 317 320 325 322 323 324 326 329 330 330 330 328 328 327 326 323 321 321 323 325 324 324 326 327 325 321 319 317 314 311 310 310 310 309 308 305 302 300 298 298 298 297 296
318 316 316 316 314 316 314 315 317 321 321 320 324 326 329 330 330 329 329 328 327 326 324 324 323 324 324 325 326 327 326 322 319 317 315 312 310 310 310 310 307 305 303 299 297 299 303 296 296
317 316 316 317 316 316 317 315 314 317 323 323 321 324 327 328 329 329 328 328 327 327 326 326 325 325 324 325 326 326 325 322 320 316 314 312 310 310 310 309 305 304 301 297 304 309 305 296 296
316 317 315 314 315 316 317 316 315 317 322 325 323 323 324 326 328 328 328 329 329 328 327 327 327 323 323 325 326 325 326 324 320 316 314 312 311 311 310 308 305 303 298 300 308 307 295 294 295
315 316 317 317 317 317 318 318 317 315 315 318 320 323 324 325 326 326 326 327 328 328 327 327 327 325 321 325 325 325 325 324 321 320 320 313 312 311 310 306 301 297 302 306 303 296 295 294 293
316 315 316 319 317 317 318 318 317 315 316 317 318 319 320 323 323 325 325 326 326 327 327 327 327 327 322 323 326 325 325 323 321 321 320 317 314 312 309 306 311 303 306 308 301 296 292 295 295
316 316 313 316 315 318 315 316 313 313 317 317 317 318 318 318 320 322 324 325 325 325 326 326 327 327 326 326 325 325 324 324 324 321 317 317 313 310 308 305 305 304 305 305 294 295 295 295 295
315 314 316 313 320 320 316 315 313 314 318 318 317 318 320 320 320 321 322 323 324 323 324 325 326 326 326 327 326 325 326 325 325 323 317 314 311 309 303 303 301 302 299 294 296 294 293 294 294
316 315 313 314 313 316 315 314 311 314 315 315 314 318 320 321 322 323 324 324 324 324 325 326 324 324 325 326 327 325 325 325 324 322 317 313 310 309 305 301 301 298 295 296 293 297 293 294 294
315 315 313 314 315 311 310 313 312 310 310 312 315 317 320 320 322 324 324 325 325 325 325 325 325 325 326 326 325 324 323 324 321 318 316 311 310 305 301 300 299 296 294 295 299 293 293 293 293

GFSSGP_850_thetae_030.txt.gz
Theta_e
312 311 311 316 319 317 318 318 318 321 324 338 341 334 329 338 337 340 340 340 341 339 333 325 328 334 335 335 331 325 322 316 309 308 310 310 310 311 312 314 315 315 316 316 316 316 317 317 317
311 310 314 316 317 318 318 318 321 328 331 334 336 341 340 340 339 339 338 340 340 339 336 331 324 326 328 326 324 321 315 309 308 310 310 310 312 313 314 314 314 315 315 316 316 315 316 316 315
311 310 317 318 316 317 318 319 318 329 333 333 337 336 331 337 337 339 340 340 339 337 336 333 324 324 324 323 320 315 310 307 309 310 310 313 314 314 314 314 315 315 315 316 315 314 316 314 313
314 317 315 316 316 317 316 317 319 326 329 331 336 338 333 325 336 339 338 340 338 337 335 331 324 324 324 320 314 310 308 308 310 310 312 314 314 314 314 314 315 315 316 314 314 314 314 314 313
313 316 317 316 316 315 315 319 331 332 328 333 335 338 337 337 335 337 339 340 338 337 336 330 324 324 322 316 312 308 307 309 310 312 313 313 313 314 314 315 315 315 314 314 315 316 316 315 313
317 315 317 316 316 319 321 326 332 331 332 335 336 337 337 337 339 338 338 339 337 336 336 330 326 325 322 314 310 308 308 309 311 313 313 313 314 315 315 315 315 315 315 316 318 318 318 317 316
317 317 317 319 322 326 331 331 331 331 332 335 336 337 336 334 338 337 339 338 337 336 333 331 327 325 321 312 309 307 309 310 312 313 313 314 315 316 316 316 316 316 317 318 319 318 318 318 317
316 317 318 320 320 323 326 329 331 330 332 334 335 336 336 333 335 335 337 337 336 335 333 330 327 326 321 311 309 308 309 311 312 313 315 315 315 316 317 317 317 318 318 319 319 319 319 318 317
314 318 320 319 318 320 323 329 331 331 332 334 335 336 334 332 333 333 334 335 334 333 332 328 327 322 313 312 309 309 312 311 313 312 312 313 314 314 319 319 317 318 319 319 320 320 319 317 316
317 318 318 317 318 319 321 327 331 332 333 334 334 332 332 331 331 334 332 330 330 329 328 327 324 319 320 315 314 314 314 313 313 313 313 316 314 321 320 316 317 319 320 320 320 320 318 316 314
318 319 319 318 317 317 322 325 329 331 331 332 333 329 329 329 331 330 329 329 329 329 326 325 322 321 318 315 315 316 314 311 312 312 313 314 314 314 318 317 319 320 320 320 320 318 317 317 314
318 318 317 318 318 321 327 327 329 330 332 334 332 329 330 329 328 328 327 327 326 323 324 320 317 316 315 312 311 313 316 317 312 312 312 314 314 314 315 318 320 322 321 320 319 318 316 312 310
318 319 318 318 318 325 327 328 330 332 333 333 330 329 328 328 327 326 324 323 322 321 319 314 313 312 312 314 314 315 314 311 310 312 320 319 313 313 317 321 322 321 320 319 318 315 310 310 309
319 319 319 319 323 326 327 328 328 331 332 332 331 330 329 327 328 325 325 321 321 320 320 316 315 314 315 317 315 311 314 318 319 322 315 313 314 319 322 323 322 321 320 319 315 312 312 309 306
319 321 322 321 326 326 326 328 331 331 331 330 330 329 328 328 329 327 324 323 322 320 319 318 320 321 318 321 319 316 320 320 322 324 322 322 322 323 324 322 322 321 319 317 310 310 309 307 304
320 319 322 323 325 326 326 328 332 330 330 329 329 329 329 329 329 328 323 319 322 323 321 322 322 322 322 321 321 317 319 320 325 324 324 324 324 325 324 323 321 319 318 314 310 310 309 308 306
320 321 322 322 324 327 327 328 330 330 330 328 328 327 326 326 327 327 328 322 322 323 323 322 323 324 321 321 316 315 321 324 326 325 325 324 325 325 324 321 319 320 318 310 310 308 307 306 305
320 320 321 323 325 325 327 328 330 331 330 328 327 327 326 325 325 327 328 328 325 324 325 325 325 325 325 326 322 319 320 326 326 326 325 324 324 325 324 321 321 319 314 310 309 307 303 304 305
321 320 320 321 322 324 325 325 329 331 331 331 330 328 327 326 325 326 327 327 327 327 326 326 326 326 326 326 321 320 325 327 326 326 326 326 325 324 323 322 321 317 311 311 308 306 303 301 302
321 321 321 321 320 321 323 323 327 331 332 331 331 331 329 327 326 326 326 325 325 326 327 327 327 327 327 325 321 322 324 326 325 325 325 325 324 322 322 322 320 314 311 309 307 305 302 304 305
321 321 321 321 320 320 322 322 326 328 330 330 331 330 330 327 327 327 327 327 326 326 326 327 327 328 327 325 323 325 325 324 325 324 324 324 324 321 321 321 319 312 310 309 307 305 301 306 306
321 321 320 321 321 321 320 321 322 325 329 330 329 330 330 329 328 328 330 329 328 327 327 327 327 328 328 327 326 324 324 326 325 324 324 324 322 320 321 320 317 311 310 309 306 303 303 307 310
320 320 321 322 321 321 321 320 322 324 327 328 328 329 329 328 328 328 329 330 331 329 328 329 329 328 328 328 325 326 326 327 327 323 323 323 321 319 319 318 314 310 310 308 304 301 304 309 308
320 321 322 322 322 322 322 321 321 322 322 323 325 326 328 328 328 328 329 330 330 331 330 329 329 329 328 328 324 325 326 327 325 323 323 323 321 318 317 314 311 310 309 307 302 301 309 307 306
321 321 322 323 323 323 322 323 321 321 321 322 323 323 326 327 328 329 329 329 330 331 331 330 330 329 328 327 324 324 326 326 323 324 323 324 321 317 315 312 311 309 309 307 301 305 311 307 303
321 321 322 323 323 321 321 322 321 321 321 321 321 321 321 325 327 328 329 330 330 332 332 331 329 330 329 326 323 324 325 324 323 322 324 324 322 319 316 313 315 309 307 303 301 311 307 302 299
321 322 321 323 323 322 321 321 321 320 320 323 323 322 323 322 322 324 327 329 330 331 332 332 331 330 330 329 327 326 326 325 324 323 324 324 322 318 316 314 316 306 304 299 307 308 302 297 299
322 321 322 323 323 322 321 320 319 319 319 320 320 321 322 323 322 321 323 325 327 329 331 331 331 330 330 330 328 327 327 327 326 325 324 323 322 320 316 313 310 305 306 303 309 301 298 300 301
321 322 321 322 322 321 321 320 320 319 320 320 320 319 321 322 324 324 323 323 324 326 329 329 329 328 329 330 329 327 327 326 326 323 323 323 322 321 318 314 314 312 301 306 299 297 299 299 300
321 321 322 323 322 322 324 321 319 320 321 320 320 318 319 321 323 325 325 325 325 326 327 327 328 328 329 329 329 327 326 326 326 324 323 322 322 321 319 315 313 305 300 300 297 296 298 300 301

GFSSGP_850_thetae_033.txt.gz
Theta_e
315 316 317 317 319 319 320 321 321 322 323 330 334 334 327 334 339 340 344 343 341 339 338 336 341 339 339 338 336 334 333 324 314 308 311 310 310 311 315 317 317 316 316 316 316 317 316 314 312
318 315 315 317 318 319 320 321 320 321 327 333 335 340 336 340 340 341 342 342 339 337 336 336 339 339 338 337 335 334 324 316 308 310 310 310 312 315 315 317 318 316 316 316 317 316 315 312 311
315 315 317 321 320 318 320 321 322 322 330 332 334 337 333 333 329 337 341 341 339 337 337 336 336 337 337 335 335 325 319 310 309 310 310 311 314 315 315 315 317 316 316 315 316 315 313 312 312
317 318 317 317 318 319 319 319 320 324 326 330 333 338 333 326 326 325 336 339 339 335 335 330 333 336 336 334 325 320 312 308 310 310 312 314 315 314 315 315 316 316 315 315 315 314 314 313 315
315 317 319 320 318 318 319 318 322 327 327 329 331 337 339 334 326 324 324 338 339 336 331 328 330 333 329 324 321 314 308 309 310 312 315 315 315 315 315 315 316 314 315 315 316 317 316 316 316
318 317 319 319 319 318 320 323 326 329 330 332 333 337 339 336 337 335 338 337 338 337 336 327 326 325 324 321 315 309 308 310 311 315 315 314 314 315 315 315 314 315 316 317 318 318 317 317 317
319 320 320 320 322 326 328 329 330 331 332 333 335 335 337 335 337 337 337 338 337 337 335 327 326 324 319 314 310 308 309 310 314 314 313 314 315 315 315 315 315 316 318 319 319 319 318 317 316
317 320 320 321 322 325 325 328 329 330 333 334 336 337 338 334 335 336 336 336 335 335 333 328 326 323 317 313 311 309 310 318 314 315 314 315 315 316 316 316 317 317 318 319 319 319 317 317 315
317 320 322 321 320 321 322 326 331 332 331 333 337 336 334 333 335 333 334 335 334 333 332 328 326 324 318 311 310 311 313 314 315 316 316 317 317 318 321 319 317 318 319 320 319 318 317 315 314
318 320 321 320 321 321 323 326 329 330 333 335 331 330 332 333 332 332 332 333 332 332 331 328 327 319 313 314 314 318 316 312 317 317 316 320 316 320 319 317 318 319 320 320 319 318 316 316 315
320 321 321 321 319 321 322 326 327 330 329 323 333 329 329 331 331 331 330 330 329 327 327 325 325 316 313 314 312 310 314 322 321 320 322 320 315 322 316 317 318 320 320 319 318 317 317 315 314
320 320 320 320 320 324 327 324 322 331 330 328 331 329 330 330 328 329 329 327 327 326 325 324 322 320 315 319 316 317 319 319 317 313 314 314 316 320 320 322 322 321 319 318 319 317 314 310 309
320 321 320 321 320 326 327 329 330 333 333 333 329 330 331 330 329 326 326 324 324 321 320 320 319 316 317 317 320 318 316 312 313 315 313 314 320 323 323 323 323 321 321 320 319 315 315 312 311
321 320 321 320 323 325 327 329 329 333 333 332 332 331 328 327 327 326 322 323 322 321 321 319 319 319 319 316 313 313 314 315 315 315 314 322 322 323 323 322 322 321 320 320 318 316 315 313 312
320 321 322 322 324 325 325 326 331 333 333 331 331 329 325 323 325 325 325 321 322 320 319 317 317 314 313 312 313 313 315 316 319 319 322 324 322 322 324 323 322 321 320 319 317 312 314 313 310
321 322 323 326 325 326 325 328 333 332 330 329 329 327 328 328 327 324 324 323 322 320 315 314 313 316 315 316 320 321 320 321 320 323 323 325 326 323 324 323 322 321 320 318 316 315 314 312 310
321 321 325 326 323 327 328 324 332 331 329 328 327 328 328 328 328 325 324 323 324 321 319 321 321 319 321 322 323 321 320 319 322 324 324 326 327 325 325 324 322 320 319 317 316 315 313 311 309
321 321 323 324 324 325 327 327 331 330 330 329 327 325 325 325 326 327 324 324 324 324 323 324 324 323 322 322 322 321 320 321 323 327 327 328 327 325 325 323 321 320 319 317 315 314 310 310 309
322 322 322 323 325 324 325 326 328 330 330 329 328 328 325 324 324 326 328 325 325 325 324 324 323 324 325 325 324 321 320 322 326 326 327 328 326 324 324 323 321 321 318 316 315 312 309 308 307
321 321 321 322 322 322 323 325 326 330 330 329 328 328 327 325 324 325 327 327 326 326 326 325 325 325 325 324 324 321 321 323 326 326 328 328 327 324 322 323 321 321 318 316 313 310 310 309 309
320 321 322 322 323 321 322 323 324 326 328 330 329 328 327 326 325 325 325 327 327 327 327 326 326 326 327 327 325 321 321 324 326 327 327 327 325 324 323 322 321 319 317 315 311 309 308 309 309
321 321 322 321 321 322 322 324 323 324 327 329 329 328 327 326 326 326 326 325 327 327 328 328 327 327 327 327 325 322 324 324 326 327 327 326 324 324 323 322 321 318 317 314 311 309 308 307 309
321 322 322 322 323 323 322 320 322 321 324 326 328 329 328 327 326 326 327 326 326 326 327 328 328 328 328 328 327 324 326 326 326 327 327 324 326 324 323 321 319 317 316 311 309 307 306 304 310
321 322 322 322 323 325 322 322 323 322 322 323 325 326 327 327 327 326 327 328 328 328 328 328 328 327 328 329 329 327 327 327 326 328 328 326 324 323 321 318 317 316 313 309 307 306 303 304 310
321 322 323 324 326 325 323 322 322 322 322 322 322 324 326 327 327 326 326 327 328 330 331 330 329 328 329 329 329 329 328 328 328 329 327 324 321 322 322 321 320 315 312 309 312 308 307 307 310
322 322 323 327 329 327 323 322 321 322 322 321 321 321 322 325 327 327 327 327 328 329 331 332 331 330 329 329 329 329 329 329 329 328 326 324 322 322 322 318 319 317 313 312 311 306 308 305 310
322 324 322 322 324 325 324 322 322 322 321 321 322 322 323 323 325 327 327 328 328 329 331 332 333 331 332 331 330 329 329 328 329 328 325 322 320 322 323 323 318 315 311 312 309 308 302 308 305
322 323 324 324 328 326 322 322 322 320 320 320 320 322 322 323 325 324 325 328 328 330 331 333 334 333 332 332 332 331 330 329 327 326 325 324 322 322 322 321 317 311 311 312 311 309 303 305 303
322 323 323 323 324 326 324 323 322 321 321 321 321 319 320 322 325 326 324 325 327 329 331 333 334 334 334 333 333 332 330 329 329 327 325 325 324 323 321 320 317 313 312 312 311 304 303 302 301
322 322 323 326 325 326 327 325 321 321 321 321 320 320 320 322 323 326 327 326 326 327 329 331 333 333 333 333 332 331 330 328 328 327 325 324 323 321 320 318 317 314 310 309 306 301 302 300 300

GFSSGP_850_thetae_039.txt.gz
Theta_e
313 316 321 320 316 311 313 314 315 318 327 330 331 328 332 338 341 336 336 332 332 330 336 339 335 330 332 331 331 330 326 314 308 309 310 310 313 314 317 318 315 314 313 311 311 310 311 319 321
314 318 319 321 312 313 315 316 317 320 329 327 328 326 332 334 336 340 341 332 328 327 329 338 337 332 333 332 331 331 321 309 310 310 310 313 314 314 316 314 314 314 313 312 311 311 313 320 321
314 316 317 311 312 315 313 316 318 317 320 325 334 334 335 332 332 333 335 339 333 337 338 338 337 332 333 331 331 328 316 308 310 310 313 315 314 314 314 314 315 314 313 313 314 313 318 321 321
318 319 318 313 313 314 315 318 322 317 321 328 330 328 329 330 329 329 329 338 333 338 337 337 338 335 333 331 331 323 310 310 310 312 315 315 315 314 314 315 315 315 315 316 316 313 316 320 319
319 319 312 315 316 317 322 322 323 327 326 326 331 330 327 335 331 333 327 332 336 331 333 337 338 336 334 332 327 315 308 310 311 314 315 316 315 315 314 315 316 317 317 317 317 315 312 318 318
317 317 313 315 317 323 322 322 321 327 327 325 325 329 332 334 333 335 333 328 329 330 327 328 338 337 334 334 328 310 310 310 313 315 315 316 316 315 315 316 317 318 318 317 317 317 312 311 316
315 312 313 314 317 322 324 322 325 328 327 327 323 325 325 331 335 336 336 329 327 330 333 332 334 336 334 333 329 313 310 311 314 315 315 316 316 315 315 316 318 319 317 316 316 314 311 310 315
317 311 313 314 319 325 324 323 325 327 327 328 323 329 328 330 333 334 334 330 328 330 331 332 331 332 328 325 317 312 311 312 316 315 316 317 317 315 316 318 319 319 318 315 314 313 310 310 313
317 311 313 316 319 318 322 322 325 326 324 325 328 331 328 331 333 332 333 334 329 328 328 325 330 326 322 322 317 313 313 316 317 317 317 317 315 314 316 318 319 319 319 317 314 314 314 312 312
314 311 314 318 318 318 319 325 328 325 326 325 329 330 330 330 331 331 331 329 326 329 329 330 330 328 325 322 316 320 317 319 318 316 316 314 314 316 317 317 318 319 319 317 315 316 316 314 313
317 313 315 319 320 321 323 326 330 324 323 322 326 330 329 330 330 331 331 330 330 329 328 327 327 326 324 319 315 312 320 319 317 316 315 316 315 315 316 315 316 319 319 317 316 317 316 314 314
315 317 318 319 320 321 323 327 329 325 325 324 328 329 329 330 329 329 329 329 329 329 327 326 326 324 319 317 313 315 320 318 317 316 316 315 316 318 317 317 318 320 320 318 316 315 315 315 311
317 317 319 320 320 322 327 331 332 332 331 329 330 330 331 329 328 327 328 327 326 328 328 326 323 320 318 315 315 318 317 319 318 318 316 315 317 317 317 316 317 320 319 319 317 318 315 311 308
319 320 320 320 320 324 325 326 329 332 331 331 330 330 329 327 326 323 325 327 326 326 324 325 323 318 315 317 321 319 317 317 315 316 314 315 316 317 316 320 321 321 320 320 319 317 313 313 311
320 318 318 318 319 323 322 322 326 331 332 331 328 327 327 325 324 323 323 325 325 324 324 323 321 317 317 318 317 317 314 312 315 314 315 315 320 320 322 322 323 322 321 321 319 317 315 313 312
318 317 317 317 322 323 322 325 322 329 330 329 327 325 327 326 325 322 322 323 323 323 322 320 320 319 317 316 314 314 312 314 316 314 315 317 321 323 323 322 323 322 321 321 319 317 315 314 312
317 316 316 318 322 324 323 325 324 326 330 326 326 322 324 327 326 322 323 322 321 321 321 320 319 317 314 315 315 314 315 315 316 315 316 316 318 317 315 318 322 322 322 321 320 318 315 314 312
318 317 320 322 324 325 326 325 323 325 329 328 325 326 326 326 326 322 322 322 321 321 320 319 317 317 315 317 317 318 316 317 316 317 317 319 320 320 315 320 324 323 322 321 320 317 315 314 313
318 318 319 321 323 325 327 325 321 322 328 329 325 326 328 325 325 321 321 321 321 320 319 318 318 319 318 317 316 315 316 317 317 318 322 320 323 321 319 322 324 323 322 322 320 317 316 315 313
320 319 317 319 323 323 325 325 321 323 327 326 325 326 328 325 324 323 321 321 319 317 317 315 315 314 314 313 314 314 315 315 316 320 320 320 321 323 323 322 324 323 323 323 320 318 316 315 313
320 319 318 319 321 321 321 329 329 327 325 328 325 325 326 326 325 324 324 321 317 316 315 316 315 313 315 316 316 317 320 320 319 316 315 321 324 321 321 324 324 323 323 322 320 318 317 315 313
319 318 319 320 320 320 319 320 330 327 328 327 326 325 324 327 326 326 325 324 319 318 317 316 316 315 315 319 319 320 320 321 320 315 317 322 323 321 322 323 323 322 323 322 320 318 317 316 311
319 319 321 321 321 320 320 320 320 327 329 327 325 326 326 325 326 326 326 326 325 322 320 319 318 317 319 320 321 320 318 322 321 320 320 321 324 323 323 324 323 323 323 322 320 318 316 315 313
318 322 322 321 320 319 319 322 321 327 327 328 326 327 326 325 325 325 325 326 325 326 325 323 321 322 321 320 322 324 324 325 323 321 321 325 325 326 325 324 325 324 323 322 321 320 319 318 318
318 320 321 320 320 319 325 325 322 319 321 322 327 327 326 326 325 325 326 326 326 326 327 326 325 324 324 324 324 322 324 326 325 321 321 323 327 326 324 324 323 323 324 322 322 320 319 318 317
319 319 321 323 322 324 324 325 323 322 321 322 327 327 327 326 325 325 325 325 326 326 326 327 327 326 326 326 326 326 325 325 327 323 323 326 326 323 325 325 323 323 324 322 321 319 318 317 315
319 319 319 321 327 325 325 325 324 321 320 320 321 325 326 324 326 326 326 325 325 325 326 326 326 326 326 327 327 327 327 326 326 326 324 322 324 322 321 324 324 322 323 322 320 319 318 317 312
318 320 321 322 326 326 326 326 325 323 320 319 317 320 323 324 326 327 326 326 326 326 326 326 326 326 326 325 326 328 328 328 328 327 327 324 320 321 321 324 324 323 321 320 320 320 318 313 309
319 319 321 323 324 324 322 322 320 322 320 318 316 320 322 323 325 326 327 327 327 326 326 326 327 327 327 328 327 327 328 328 329 329 327 324 323 323 326 325 323 322 320 319 320 318 315 311 308
318 319 319 323 324 324 323 322 320 320 320 320 319 319 321 323 324 324 324 325 325 328 328 328 328 328 327 323 328 328 329 329 329 329 328 326 323 326 326 324 321 319 320 319 318 315 312 308 307